Location: Sperry Observatory
(40.6664°N, 74.3236°W)
Time: 23:29:52
(UTC-05:00)

Amateur Radio Satellites - All Passes

Search period start: 21 January 2018 22:59
Search period end: 22 January 2018 22:59
Location: Sperry Observatory, 40.6664°N, 74.3236°W

Satellite Date Start Highest point End Downlink Frequencies (MHz)
Time Altitude Azimuth
O/OREOS (USA 219) 21 Jan 23:04:11 23:07:05 17° 100° (E) 23:09:59 437.305
nSIGHT-1 21 Jan 23:11:43 23:12:54 12° 359° (N) 23:14:05 .
DUCHIFAT 1 21 Jan 23:16:28 23:19:27 18° 93° (E) 23:22:24 145.980
EO-79 21 Jan 23:18:31 23:22:07 26° 95° (E) 23:25:41 145.935-145.965
ISS 21 Jan 23:28:52 23:30:17 12° 358° (N) 23:31:42 437.550
TIGRISAT 21 Jan 23:31:34 23:32:21 10° 300° (WNW) 23:33:09 435.000
PRISM 21 Jan 23:37:05 23:40:28 26° 291° (WNW) 23:43:51 437.425
AIST 2D 21 Jan 23:39:28 23:42:43 38° 287° (WNW) 23:45:56 435.315
POLYITAN 1 21 Jan 23:53:18 23:57:35 64° 101° (E) 00:01:50 437.675
YUBILEINY 21 Jan 23:55:39 00:04:01 46° 285° (WNW) 00:12:25 435.215
NANOSAT C BR1 22 Jan 00:07:54 00:12:11 83° 101° (E) 00:16:27 145.865
SPROUT 22 Jan 00:11:16 00:15:12 37° 262° (W) 00:19:10 437.525
BUGSAT 1 22 Jan 00:13:44 00:16:38 18° 93° (E) 00:19:32 437.445
Gurwin Techsat 1B 22 Jan 00:20:55 00:21:54 10° 88° (E) 00:22:52 435.225
VELOX 1 22 Jan 00:22:09 00:26:26 54° 259° (W) 00:30:45 145.980
UKube-1 22 Jan 00:22:15 00:25:06 18° 65° (ENE) 00:27:57 .
QB50P2 22 Jan 00:23:14 00:27:24 50° 287° (WNW) 00:31:31 145.880/145.840
Oscar 19 22 Jan 00:24:38 00:27:46 16° 91° (E) 00:30:53 437.125/150
NO-84 22 Jan 00:24:51 00:27:16 24° 230° (SW) 00:29:47 435.350 FM
DX 1 22 Jan 00:35:04 00:39:05 39° 71° (ENE) 00:43:07 434.975-435.025
O/OREOS (USA 219) 22 Jan 00:41:47 00:46:05 44° 296° (WNW) 00:50:25 437.305
nSIGHT-1 22 Jan 00:47:44 00:50:02 18° 19° (NNE) 00:52:20 .
DUCHIFAT 1 22 Jan 00:51:17 00:55:12 37° 289° (WNW) 00:59:06 145.980
MOZHAYETS 4 22 Jan 00:51:50 00:53:08 11° 61° (ENE) 00:54:28
EO-79 22 Jan 00:54:11 00:57:47 27° 291° (WNW) 01:01:22 145.935-145.965
ISS 22 Jan 01:05:20 01:07:46 19° 19° (NNE) 01:10:11 437.550
BEESAT 22 Jan 01:10:29 01:11:33 11° 59° (ENE) 01:12:37 436.000
50 SAT 22 Jan 01:13:51 01:16:54 72° 258° (WSW) 01:20:00 437.505
AO-91 22 Jan 01:29:47 01:34:21 87° 103° (ESE) 01:39:22 145.960
POLYITAN 1 22 Jan 01:31:08 01:32:47 12° 297° (WNW) 01:34:26 437.675
BUGSAT 1 22 Jan 01:48:09 01:52:06 38° 289° (WNW) 01:56:02 437.445
UKube-1 22 Jan 01:56:43 02:00:46 41° 261° (W) 02:04:52 .
Gurwin Techsat 1B 22 Jan 01:57:09 02:02:30 89° 287° (WNW) 02:07:50 435.225
Oscar 19 22 Jan 02:02:22 02:07:28 59° 287° (WNW) 02:12:30 437.125/150
ITUPSAT 1 22 Jan 02:05:24 02:09:45 37° 69° (ENE) 02:14:09 437.325
DX 1 22 Jan 02:12:27 02:15:24 18° 267° (W) 02:18:21 434.975-435.025
nSIGHT-1 22 Jan 02:23:22 02:26:34 89° 214° (SW) 02:29:44 .
AO-7 22 Jan 02:24:16 02:31:05 27° 95° (E) 02:37:49 .
MOZHAYETS 4 22 Jan 02:24:57 02:29:35 81° 258° (WSW) 02:34:16
CUBESAT XI-V 22 Jan 02:31:47 02:35:50 30° 69° (ENE) 02:39:54 437.345
FALCONSAT 3 22 Jan 02:37:01 02:38:41 13° 155° (SSE) 02:40:22 435.103
ISS 22 Jan 02:41:19 02:44:36 89° 232° (SW) 02:47:52 437.550
BEESAT 22 Jan 02:43:47 02:48:33 89° 252° (WSW) 02:53:21 436.000
AO-91 22 Jan 03:09:20 03:10:16 11° 297° (WNW) 03:11:12 145.960
ITAMSAT 1 22 Jan 03:11:19 03:15:55 31° 97° (E) 03:20:31 435.822/435.867
Gurwin Techsat 1B 22 Jan 03:39:36 03:41:39 12° 302° (WNW) 03:43:41 435.225
ITUPSAT 1 22 Jan 03:43:52 03:47:38 23° 265° (W) 03:51:27 437.325
KKS-1 22 Jan 03:46:03 03:49:43 26° 68° (ENE) 03:53:25 437.445
STARS 22 Jan 03:59:49 04:02:15 15° 63° (ENE) 04:04:40 437.465
CUBESAT XI-V 22 Jan 04:09:09 04:13:09 27° 265° (W) 04:17:08 437.345
FALCONSAT 3 22 Jan 04:13:55 04:17:09 30° 169° (S) 04:20:24 435.103
AO-7 22 Jan 04:16:05 04:24:21 67° 293° (WNW) 04:32:35 .
DOVE 4 22 Jan 04:22:53 04:27:05 43° 99° (E) 04:31:29 437.250
ITAMSAT 1 22 Jan 04:50:45 04:55:19 32° 293° (WNW) 04:59:52 435.822/435.867
CUTE-I 22 Jan 04:55:36 04:57:27 12° 89° (E) 04:59:18 437.470
XW-2D 22 Jan 04:59:50 05:01:31 13° 91° (E) 05:03:13 145.860 - 145.880
SO-50 22 Jan 05:08:32 05:12:58 82° 302° (WNW) 05:17:31 436.795
M-CUBED/EXP-1 PRIME 22 Jan 05:15:45 05:19:05 73° 289° (WNW) 05:22:18 437.505
XW-2B 22 Jan 05:16:33 05:19:20 19° 94° (E) 05:22:05 145.730 - 145.750
KKS-1 22 Jan 05:22:23 05:26:10 28° 264° (W) 05:29:59 437.445
STARS 22 Jan 05:33:52 05:38:06 53° 259° (W) 05:42:23 437.465
LilacSat-2 22 Jan 05:45:46 05:49:28 51° 100° (E) 05:53:07 437.200
XW-2C 22 Jan 05:46:17 05:49:57 47° 100° (E) 05:53:33 145.795 - 145.815
FALCONSAT 3 22 Jan 05:52:28 05:55:51 35° 184° (S) 05:59:13 435.103
STRAND 1 22 Jan 05:59:51 06:04:33 39° 69° (ENE) 06:09:17 437.568
DOVE 4 22 Jan 06:01:31 06:04:29 18° 293° (WNW) 06:07:33 437.250
AO-7 22 Jan 06:11:08 06:15:33 16° 313° (NW) 06:19:58 .
KAITUO 1B 22 Jan 06:17:07 06:20:49 83° 103° (ESE) 06:24:29 145.475/437.950
XW-2F 22 Jan 06:21:17 06:24:59 64° 285° (WNW) 06:28:39 145.980 - 146.000
NUDT-PHONESAT 22 Jan 06:25:36 06:29:17 81° 283° (WNW) 06:32:55 437.300
XW-2D 22 Jan 06:32:20 06:35:52 40° 287° (WNW) 06:39:23 145.860 - 145.880
CUTE-I 22 Jan 06:32:45 06:38:06 82° 285° (WNW) 06:43:26 437.470
SEEDS 22 Jan 06:33:55 06:37:27 27° 95° (E) 06:40:58 437.485
HO-68 22 Jan 06:42:04 06:49:06 56° 101° (ESE) 06:56:06 435.675
FO-29 22 Jan 06:45:07 06:51:39 51° 71° (ENE) 06:57:27 435.910
CUTE 1.7 + AOD 2 22 Jan 06:48:44 06:52:56 70° 101° (E) 06:57:07 437.475
XW-2B 22 Jan 06:50:18 06:53:28 26° 290° (WNW) 06:56:37 145.730 - 145.750
SO-50 22 Jan 06:52:04 06:54:10 13° 322° (NW) 06:56:18 436.795
RS-15 22 Jan 07:11:13 07:22:58 54° 111° (ESE) 07:34:35 29.354- 29.394
CUBEBUG 2 22 Jan 07:14:56 07:19:43 86° 102° (ESE) 07:24:27 437.445
UWE-3 22 Jan 07:17:27 07:22:02 51° 99° (E) 07:26:30 435.000/436.395/437.385
LilacSat-2 22 Jan 07:22:05 07:23:15 11° 296° (WNW) 07:24:25 437.200
XW-2C 22 Jan 07:22:14 07:23:39 12° 295° (WNW) 07:25:05 145.795 - 145.815
FALCONSAT 3 22 Jan 07:31:45 07:34:26 19° 199° (SSW) 07:37:08 435.103
UNISAT 6 22 Jan 07:31:52 07:33:40 12° 62° (ENE) 07:35:29 437.425
ZACube-1 22 Jan 07:38:03 07:42:25 43° 98° (E) 07:46:40 437.345
STRAND 1 22 Jan 07:39:45 07:43:49 24° 266° (W) 07:47:56 437.568
AO-73 22 Jan 07:43:56 07:48:17 43° 98° (E) 07:52:30 145.935
AAUSAT CUBESAT 2 22 Jan 07:46:10 07:50:17 77° 101° (E) 07:54:23 437.432
XW-2A 22 Jan 07:57:27 08:00:49 84° 282° (WNW) 08:04:07 145.665 - 145.685
SEEDS 22 Jan 08:09:40 08:13:01 24° 291° (WNW) 08:16:22 437.485
YUBILEINY 22 Jan 08:10:39 08:16:16 18° 62° (ENE) 08:21:50 435.215
Oscar 11 22 Jan 08:15:31 08:19:48 59° 100° (E) 08:24:03 .
CUTE-I 22 Jan 08:15:45 08:17:17 11° 302° (WNW) 08:18:48 437.470
CUTE 1.7 + AOD 2 22 Jan 08:27:17 08:28:10 11° 298° (WNW) 08:29:02 437.475
HO-68 22 Jan 08:30:29 08:36:25 29° 299° (WNW) 08:42:20 435.675
FO-29 22 Jan 08:31:18 08:36:51 26° 265° (W) 08:41:55 435.910
BEESAT 3 22 Jan 08:39:59 08:43:41 39° 116° (ESE) 08:47:26 437.485
TIGRISAT 22 Jan 08:49:35 08:53:59 73° 74° (ENE) 08:58:32 435.000
PRISM 22 Jan 08:51:19 08:54:00 17° 66° (ENE) 08:56:40 437.425
CUBEBUG 2 22 Jan 08:54:19 08:55:34 11° 299° (WNW) 08:56:50 437.445
UWE-3 22 Jan 08:55:02 08:58:01 17° 296° (WNW) 09:00:58 435.000/436.395/437.385
PCSat 22 Jan 09:00:26 09:05:39 51° 113° (ESE) 09:10:54 145.827
UNISAT 6 22 Jan 09:05:19 09:09:43 69° 259° (WSW) 09:14:16 437.425
O/OREOS (USA 219) 22 Jan 09:12:52 09:16:53 31° 61° (ENE) 09:20:53 437.305
ZACube-1 22 Jan 09:15:10 09:18:19 19° 295° (WNW) 09:21:25 437.345
AO-73 22 Jan 09:21:02 09:24:07 18° 295° (WNW) 09:27:10 145.935
RS-15 22 Jan 09:23:42 09:35:36 52° 314° (NW) 09:47:21 29.354- 29.394
BEESAT 2 22 Jan 09:31:39 09:35:20 36° 116° (ESE) 09:39:05 435.950
QB50P2 22 Jan 09:43:02 09:43:50 10° 62° (ENE) 09:44:40 145.880/145.840
DELFI C3 22 Jan 09:43:44 09:47:38 72° 284° (WNW) 09:51:33 145.870
Oscar 11 22 Jan 09:53:27 09:55:24 13° 297° (WNW) 09:57:21 .
Max Valier Satellite 22 Jan 10:03:59 10:07:38 58° 285° (WNW) 10:11:14 145.860
YUBILEINY 22 Jan 10:05:37 10:14:23 88° 84° (E) 10:23:05 435.215
DUCHIFAT 1 22 Jan 10:08:42 10:10:49 14° 64° (ENE) 10:12:57 145.980
EO-79 22 Jan 10:10:55 10:13:55 19° 66° (ENE) 10:16:56 145.935-145.965
AIST 2D 22 Jan 10:12:24 10:15:52 62° 76° (ENE) 10:19:21 435.315
AO-85 22 Jan 10:16:36 10:18:27 13° 108° (ESE) 10:20:20 145.980
BEESAT 3 22 Jan 10:18:20 10:21:21 20° 314° (NW) 10:24:23 437.485
EO-88 22 Jan 10:19:02 10:22:37 58° 285° (WNW) 10:26:10 145.990 - 145.960
PRISM 22 Jan 10:25:11 10:28:58 37° 261° (W) 10:32:45 437.425
TIGRISAT 22 Jan 10:30:59 10:31:12 10° 272° (W) 10:31:24 435.000
ESTCUBE 1 22 Jan 10:43:52 10:47:33 24° 95° (E) 10:51:12 437.505/2401.250
PCSat 22 Jan 10:44:54 10:49:19 25° 312° (NW) 10:53:47 145.827
POLYITAN 1 22 Jan 10:45:07 10:49:08 44° 73° (ENE) 10:53:13 437.675
O/OREOS (USA 219) 22 Jan 10:52:31 10:56:07 24° 258° (WSW) 10:59:42 437.305
NANOSAT C BR1 22 Jan 10:59:06 11:03:12 56° 74° (ENE) 11:07:22 145.865
BUGSAT 1 22 Jan 11:04:17 11:05:58 12° 63° (ENE) 11:07:38 437.445
BEESAT 2 22 Jan 11:09:59 11:13:09 22° 313° (NW) 11:16:21 435.950
QB50P2 22 Jan 11:14:46 11:18:59 73° 258° (WSW) 11:23:15 145.880/145.840
LO-87 22 Jan 11:33:09 11:36:45 59° 284° (WNW) 11:40:18 145.935 - 145.965
Gurwin Techsat 1B 22 Jan 11:40:12 11:43:48 19° 62° (ENE) 11:47:25 435.225
Oscar 19 22 Jan 11:40:46 11:44:53 24° 65° (ENE) 11:49:01 437.125/150
DUCHIFAT 1 22 Jan 11:41:54 11:46:00 53° 260° (W) 11:50:08 145.980
RS-15 22 Jan 11:42:46 11:51:56 23° 345° (NNW) 12:00:54 29.354- 29.394
EO-79 22 Jan 11:45:30 11:49:23 36° 262° (W) 11:53:20 145.935-145.965
AO-85 22 Jan 11:54:23 11:58:16 52° 306° (NW) 12:02:26 145.980
SPROUT 22 Jan 11:56:42 12:00:40 35° 97° (E) 12:04:35 437.525
SO-50 22 Jan 12:00:58 12:03:18 13° 38° (NE) 12:05:39 436.795
YUBILEINY 22 Jan 12:04:38 12:09:55 18° 283° (WNW) 12:15:11 435.215
VELOX 1 22 Jan 12:12:28 12:16:14 27° 96° (E) 12:20:00 145.980
ESTCUBE 1 22 Jan 12:20:24 12:24:20 30° 291° (WNW) 12:28:13 437.505/2401.250
POLYITAN 1 22 Jan 12:22:38 12:25:07 15° 268° (W) 12:27:38 437.675
AO-91 22 Jan 12:27:40 12:30:58 60° 75° (ENE) 12:34:26 145.960
BUGSAT 1 22 Jan 12:36:46 12:40:46 57° 259° (W) 12:44:52 437.445
NANOSAT C BR1 22 Jan 12:37:41 12:39:15 12° 270° (W) 12:40:49 145.865
Gurwin Techsat 1B 22 Jan 13:18:02 13:23:15 58° 259° (WSW) 13:28:31 435.225
Oscar 19 22 Jan 13:19:02 13:23:55 42° 261° (W) 13:28:52 437.125/150
AO-7 22 Jan 13:22:45 13:30:14 38° 60° (ENE) 13:37:44 .
SPROUT 22 Jan 13:33:07 13:36:17 20° 293° (WNW) 13:39:28 437.525
SO-50 22 Jan 13:39:47 13:44:31 80° 58° (ENE) 13:49:17 436.795
UKube-1 22 Jan 13:43:47 13:47:36 30° 97° (E) 13:51:24 .
VELOX 1 22 Jan 13:48:55 13:52:34 26° 292° (WNW) 13:56:14 145.980
DX 1 22 Jan 13:58:58 14:03:20 78° 104° (ESE) 14:07:40 434.975-435.025
50 SAT 22 Jan 13:59:47 14:02:55 85° 106° (ESE) 14:06:01 437.505
RS-15 22 Jan 14:00:42 14:10:10 26° 21° (NNE) 14:19:15 29.354- 29.394
MOZHAYETS 4 22 Jan 14:20:48 14:24:32 24° 94° (E) 14:28:14
M-CUBED/EXP-1 PRIME 22 Jan 14:28:32 14:30:14 12° 60° (ENE) 14:31:54 437.505
ITAMSAT 1 22 Jan 14:28:49 14:33:44 47° 70° (ENE) 14:38:41 435.822/435.867
BEESAT 22 Jan 14:44:43 14:48:33 23° 95° (E) 14:52:21 436.000
AO-7 22 Jan 15:14:43 15:22:44 51° 258° (WSW) 15:30:51 .
UKube-1 22 Jan 15:20:02 15:23:27 23° 293° (WNW) 15:26:52 .
SO-50 22 Jan 15:22:41 15:24:20 12° 253° (WSW) 15:26:00 436.795
DOVE 4 22 Jan 15:28:20 15:32:17 39° 72° (ENE) 15:36:10 437.250
DX 1 22 Jan 15:38:06 15:38:51 10° 299° (WNW) 15:39:35 434.975-435.025
NO-84 22 Jan 15:38:30 15:41:21 29° 131° (SE) 15:44:02 435.350 FM
ITUPSAT 1 22 Jan 15:43:11 15:48:02 90° 317° (NW) 15:52:51 437.325
MOZHAYETS 4 22 Jan 15:57:33 16:01:42 33° 290° (WNW) 16:05:49
XW-2B 22 Jan 15:59:38 16:00:09 10° 64° (ENE) 16:00:40 145.730 - 145.750
M-CUBED/EXP-1 PRIME 22 Jan 15:59:53 16:04:12 65° 253° (WSW) 16:08:14 437.505
CUBESAT XI-V 22 Jan 16:04:57 16:09:35 75° 102° (ESE) 16:14:09 437.345
ITAMSAT 1 22 Jan 16:09:37 16:13:25 21° 267° (W) 16:17:14 435.822/435.867
RS-15 22 Jan 16:13:55 16:25:38 64° 51° (NE) 16:36:40 29.354- 29.394
CUTE-I 22 Jan 16:16:09 16:20:00 21° 63° (ENE) 16:23:52 437.470
BEESAT 22 Jan 16:21:59 16:26:22 36° 291° (WNW) 16:30:44 436.000
XW-2C 22 Jan 16:27:19 16:30:21 22° 69° (ENE) 16:33:22 145.795 - 145.815
LilacSat-2 22 Jan 16:27:21 16:30:31 25° 70° (ENE) 16:33:41 437.200
KAITUO 1B 22 Jan 16:56:17 16:59:42 34° 72° (ENE) 17:03:07 145.475/437.950
BEESAT 3 22 Jan 16:56:55 17:00:03 22° 47° (NE) 17:03:08 437.485
XW-2F 22 Jan 17:01:01 17:04:43 53° 75° (ENE) 17:08:26 145.980 - 146.000
NUDT-PHONESAT 22 Jan 17:03:40 17:07:09 39° 73° (ENE) 17:10:39 437.300
DOVE 4 22 Jan 17:07:29 17:10:08 16° 267° (W) 17:12:46 437.250
HO-68 22 Jan 17:10:22 17:16:55 40° 65° (ENE) 17:23:28 435.675
XW-2D 22 Jan 17:12:15 17:16:05 85° 77° (ENE) 17:19:55 145.860 - 145.880
KKS-1 22 Jan 17:12:36 17:16:59 54° 101° (E) 17:21:20 437.445
NO-84 22 Jan 17:15:58 17:18:30 23° 326° (NNW) 17:20:56 435.350 FM
STARS 22 Jan 17:23:31 17:27:17 27° 96° (E) 17:31:02 437.465
ITUPSAT 1 22 Jan 17:24:02 17:25:05 11° 301° (WNW) 17:26:07 437.325
SEEDS 22 Jan 17:25:34 17:28:32 19° 67° (ENE) 17:31:28 437.485
XW-2B 22 Jan 17:30:01 17:33:47 59° 259° (W) 17:37:35 145.730 - 145.750
CUTE 1.7 + AOD 2 22 Jan 17:40:36 17:44:40 45° 73° (ENE) 17:48:45 437.475
CUBESAT XI-V 22 Jan 17:44:40 17:46:17 12° 299° (WNW) 17:47:55 437.345
PCSat 22 Jan 17:48:32 17:53:38 39° 54° (NE) 17:58:41 145.827
BEESAT 2 22 Jan 17:49:29 17:52:40 22° 47° (NE) 17:55:48 435.950
CUTE-I 22 Jan 17:54:29 17:59:38 52° 260° (W) 18:04:50 437.470
XW-2C 22 Jan 18:01:15 18:04:24 24° 265° (W) 18:07:33 145.795 - 145.815
LilacSat-2 22 Jan 18:01:39 18:04:42 22° 265° (W) 18:07:47 437.200
STRAND 1 22 Jan 18:12:07 18:14:36 13° 90° (E) 18:17:04 437.568
CUBEBUG 2 22 Jan 18:12:11 18:16:32 66° 74° (ENE) 18:21:03 437.445
UWE-3 22 Jan 18:13:44 18:17:50 38° 71° (ENE) 18:22:04 435.000/436.395/437.385
RS-15 22 Jan 18:27:12 18:37:20 38° 254° (WSW) 18:47:04 29.354- 29.394
XW-2A 22 Jan 18:27:55 18:30:50 27° 71° (ENE) 18:33:46 145.665 - 145.685
KAITUO 1B 22 Jan 18:31:30 18:33:45 15° 267° (W) 18:36:01 145.475/437.950
ZACube-1 22 Jan 18:33:09 18:37:07 32° 70° (ENE) 18:41:10 437.345
BEESAT 3 22 Jan 18:34:06 18:37:37 32° 245° (WSW) 18:41:04 437.485
AAUSAT CUBESAT 2 22 Jan 18:35:26 18:39:23 46° 73° (ENE) 18:43:20 437.432
AO-73 22 Jan 18:38:41 18:42:39 32° 70° (ENE) 18:46:42 145.935
XW-2F 22 Jan 18:38:49 18:39:07 10° 270° (W) 18:39:23 145.980 - 146.000
NUDT-PHONESAT 22 Jan 18:39:20 18:41:09 13° 268° (W) 18:42:57 437.300
AO-85 22 Jan 18:45:21 18:48:48 19° 43° (NE) 18:52:23 145.980
KKS-1 22 Jan 18:50:31 18:53:03 15° 297° (WNW) 18:55:37 437.445
HO-68 22 Jan 18:58:01 19:04:36 39° 262° (W) 19:11:14 435.675
STARS 22 Jan 18:59:48 19:03:32 27° 292° (WNW) 19:07:16 437.465
nSIGHT-1 22 Jan 18:59:54 19:02:40 28° 135° (SE) 19:05:27 .
SEEDS 22 Jan 19:00:02 19:03:56 36° 263° (W) 19:07:50 437.485
Oscar 11 22 Jan 19:09:37 19:13:43 42° 72° (ENE) 19:17:51 .
CUTE 1.7 + AOD 2 22 Jan 19:18:17 19:20:43 15° 269° (W) 19:23:09 437.475
ISS 22 Jan 19:21:01 19:23:57 31° 136° (SE) 19:26:54 437.550
BEESAT 2 22 Jan 19:26:48 19:30:28 35° 245° (WSW) 19:34:04 435.950
PCSat 22 Jan 19:32:13 19:36:51 29° 251° (WSW) 19:41:28 145.827
FO-29 22 Jan 19:39:33 19:44:24 39° 98° (E) 19:49:20 435.910
STRAND 1 22 Jan 19:49:08 19:54:16 70° 286° (WNW) 19:59:23 437.568
UWE-3 22 Jan 19:51:09 19:54:24 20° 268° (W) 19:57:44 435.000/436.395/437.385
CUBEBUG 2 22 Jan 19:52:21 19:53:37 11° 272° (W) 19:54:55 437.445
XW-2A 22 Jan 20:01:25 20:03:32 15° 266° (W) 20:05:40 145.665 - 145.685
ZACube-1 22 Jan 20:09:49 20:13:24 23° 266° (W) 20:17:04 437.345
AAUSAT CUBESAT 2 22 Jan 20:12:54 20:15:02 14° 269° (W) 20:17:11 437.432
AO-73 22 Jan 20:15:19 20:18:53 23° 266° (W) 20:22:32 145.935
AO-85 22 Jan 20:24:43 20:29:43 76° 240° (WSW) 20:35:00 145.980
DELFI C3 22 Jan 20:28:00 20:31:49 56° 75° (ENE) 20:35:40 145.870
nSIGHT-1 22 Jan 20:35:54 20:38:47 32° 332° (NNW) 20:41:41 .
Max Valier Satellite 22 Jan 20:41:42 20:45:20 53° 74° (ENE) 20:49:00 145.860
TIGRISAT 22 Jan 20:42:21 20:45:23 17° 92° (E) 20:48:22 435.000
Oscar 11 22 Jan 20:47:15 20:50:02 17° 268° (W) 20:52:50 .
EO-88 22 Jan 20:55:36 20:59:08 50° 74° (ENE) 21:02:41 145.990 - 145.960
ISS 22 Jan 20:57:27 21:00:25 31° 333° (NNW) 21:03:24 437.550
UNISAT 6 22 Jan 20:57:28 21:01:27 26° 95° (E) 21:05:22 437.425
YUBILEINY 22 Jan 21:12:37 21:18:34 21° 79° (ENE) 21:24:29 435.215
FO-29 22 Jan 21:25:14 21:29:20 24° 295° (WNW) 21:33:28 435.910
ESTCUBE 1 22 Jan 21:43:08 21:46:39 23° 67° (ENE) 21:50:10 437.505/2401.250
PRISM 22 Jan 22:06:28 22:09:57 27° 96° (E) 22:13:26 437.425
LO-87 22 Jan 22:08:10 22:11:35 46° 74° (ENE) 22:15:02 145.935 - 145.965
NO-84 22 Jan 22:11:16 22:13:21 18° 31° (NNE) 22:15:27 435.350 FM
nSIGHT-1 22 Jan 22:14:12 22:15:41 13° 352° (N) 22:17:11 .
TIGRISAT 22 Jan 22:17:45 22:22:18 49° 287° (WNW) 22:26:48 435.000
UNISAT 6 22 Jan 22:33:58 22:38:06 31° 291° (WNW) 22:42:13 437.425
ISS 22 Jan 22:36:01 22:37:40 13° 352° (N) 22:39:18 437.550
SPROUT 22 Jan 22:49:39 22:53:10 26° 69° (ENE) 22:56:42 437.525
